This is the latest recevied weather packets stored in our database for station/object K7DC. If no packets are shown the sender has not sent any weather packets the latest 10 day(s).
| Time | Temp. | Humidity | Pressure | Rain* | Wind** | Luminosity | Snow |
|---|---|---|---|---|---|---|---|
| 1788010944 | 26.67° C | 54% | 1016.3 hPa | 0 mm | - | 52 W/m² | - |
| 1788010639 | 26.11° C | 55% | 1015.9 hPa | 0 mm | - | 43 W/m² | - |
| 1788010338 | 26.11° C | 56% | 1016 hPa | 0 mm | - | 36 W/m² | - |
| 1788010037 | 25.56° C | 56% | 1016 hPa | 0 mm | - | 29 W/m² | - |
| 1788009733 | 25° C | 58% | 1015.8 hPa | 0 mm | - | 23 W/m² | - |
| 1788009430 | 25° C | 58% | 1015.8 hPa | 0 mm | - | 18 W/m² | - |
| 1788009126 | 25° C | 58% | 1015.9 hPa | 0 mm | - | 13 W/m² | - |
| 1788008821 | 25° C | 59% | 1015.9 hPa | 0 mm | - | 9 W/m² | - |
| 1788008521 | 25° C | 59% | 1015.8 hPa | 0 mm | - | 6 W/m² | - |
| 1788008218 | 24.44° C | 60% | 1015.7 hPa | 0 mm | - | 3 W/m² | - |
| 1788007916 | 24.44° C | 61% | 1015.8 hPa | 0 mm | - | 2 W/m² | - |
| 1788007616 | 24.44° C | 62% | 1015.6 hPa | 0 mm | - | 1 W/m² | - |
| 1788007310 | 24.44° C | 62% | 1015.7 hPa | 0 mm | - | 0 W/m² | - |
| 1788007009 | 24.44° C | 64% | 1015.7 hPa | 0 mm | - | 0 W/m² | - |
| 1788006704 | 24.44° C | 63% | 1015.7 hPa | 0 mm | - | 0 W/m² | - |
| 1788006399 | 23.89° C | 64% | 1015.5 hPa | 0 mm | - | 0 W/m² | - |
| 1788006099 | 23.89° C | 64% | 1015.5 hPa | 0 mm | - | 0 W/m² | - |
| 1788005798 | 24.44° C | 62% | 1015.3 hPa | 0 mm | - | 0 W/m² | - |
| 1788005493 | 24.44° C | 62% | 1015.3 hPa | 0 mm | - | 0 W/m² | - |
| 1788005192 | 24.44° C | 62% | 1015.3 hPa | 0 mm | - | 0 W/m² | - |
| 1788004886 | 24.44° C | 63% | 1015.6 hPa | 0 mm | - | 0 W/m² | - |
| 1788004586 | 24.44° C | 63% | 1015.3 hPa | 0 mm | - | 0 W/m² | - |
| 1788004280 | 25° C | 62% | 1015.2 hPa | 0 mm | - | 0 W/m² | - |
| 1788003979 | 25° C | 62% | 1015.5 hPa | 0 mm | - | 0 W/m² | - |
| 1788003679 | 25° C | 61% | 1015.3 hPa | 0 mm | - | 0 W/m² | - |
* Rain latest hour (hover to see other rain measurements)
** Current wind speed in m/s (hover to see current wind gust speed)